Time,TemperatureF,DewpointF,PressureIn,WindDirection,WindDirectionDegrees,WindSpeedMPH,WindSpeedGustMPH,Humidity,HourlyPrecipIn,Conditions,Clouds,dailyrainin,SoftwareType,DateUTC
2013-11-13 00:01:00,32.7,21.9,30.08,NW,315,0.0,0.0,64,0.00,,,0.00,meteobridge,2013-11-13 05:01:00,
2013-11-13 00:03:00,32.7,21.9,30.07,North,0,0.0,0.0,64,0.00,,,0.00,meteobridge,2013-11-13 05:03:00,
2013-11-13 00:04:00,32.7,21.9,30.07,North,0,0.0,0.0,64,0.00,,,0.00,meteobridge,2013-11-13 05:04:00,
2013-11-13 00:09:00,32.7,21.9,30.07,NE,45,0.0,0.0,64,0.00,,,0.00,meteobridge,2013-11-13 05:09:00,
2013-11-13 00:14:00,32.9,22.1,30.06,West,270,0.0,0.0,64,0.00,,,0.00,meteobridge,2013-11-13 05:14:00,
2013-11-13 00:19:00,32.9,21.7,30.07,ENE,68,0.0,0.0,63,0.00,,,0.00,meteobridge,2013-11-13 05:19:00,
2013-11-13 00:25:00,32.9,21.7,30.07,South,180,0.0,0.0,63,0.00,,,0.00,meteobridge,2013-11-13 05:25:00,
2013-11-13 00:30:00,32.9,21.7,30.07,West,270,0.0,0.0,63,0.00,,,0.00,meteobridge,2013-11-13 05:30:00,
2013-11-13 00:35:00,32.9,22.1,30.07,West,270,0.0,0.0,64,0.00,,,0.00,meteobridge,2013-11-13 05:35:00,
2013-11-13 00:40:00,32.7,21.9,30.07,ENE,68,0.0,0.0,64,0.00,,,0.00,meteobridge,2013-11-13 05:40:00,
2013-11-13 00:45:00,32.5,22.1,30.07,SE,135,0.0,0.0,65,0.00,,,0.00,meteobridge,2013-11-13 05:45:00,
2013-11-13 00:51:00,32.5,21.7,30.07,West,270,0.0,0.0,64,0.00,,,0.00,meteobridge,2013-11-13 05:51:00,
2013-11-13 00:56:00,32.5,21.7,30.07,North,0,0.0,0.0,64,0.00,,,0.00,meteobridge,2013-11-13 05:56:00,
2013-11-13 01:01:00,32.7,21.9,30.07,NE,45,0.0,0.0,64,0.00,,,0.00,meteobridge,2013-11-13 06:01:00,
2013-11-13 01:06:00,32.7,21.9,30.08,NE,45,0.0,0.0,64,0.00,,,0.00,meteobridge,2013-11-13 06:06:00,
2013-11-13 01:11:00,32.5,22.1,30.08,NE,45,0.0,0.0,65,0.00,,,0.00,meteobridge,2013-11-13 06:11:00,
2013-11-13 01:16:00,32.7,22.3,30.08,NW,315,0.0,0.0,65,0.00,,,0.00,meteobridge,2013-11-13 06:16:00,
2013-11-13 01:22:00,32.7,22.3,30.08,North,0,0.0,0.0,65,0.00,,,0.00,meteobridge,2013-11-13 06:22:00,
2013-11-13 01:27:00,32.7,22.3,30.08,NW,315,0.0,0.0,65,0.00,,,0.00,meteobridge,2013-11-13 06:27:00,
2013-11-13 01:32:00,32.7,22.3,30.08,SW,225,0.0,0.0,65,0.00,,,0.00,meteobridge,2013-11-13 06:32:00,
2013-11-13 01:37:00,32.7,22.3,30.09,NW,315,0.0,0.0,65,0.00,,,0.00,meteobridge,2013-11-13 06:37:00,
2013-11-13 01:42:00,32.5,22.1,30.08,East,90,0.0,0.0,65,0.00,,,0.00,meteobridge,2013-11-13 06:42:00,
2013-11-13 01:47:00,32.4,21.9,30.08,West,270,0.0,0.0,65,0.00,,,0.00,meteobridge,2013-11-13 06:47:00,
2013-11-13 01:53:00,32.4,21.9,30.08,ENE,68,0.0,0.0,65,0.00,,,0.00,meteobridge,2013-11-13 06:53:00,
2013-11-13 01:58:00,32.4,21.9,30.08,North,0,0.0,0.0,65,0.00,,,0.00,meteobridge,2013-11-13 06:58:00,
2013-11-13 02:03:00,32.2,21.7,30.08,South,180,0.0,0.0,65,0.00,,,0.00,meteobridge,2013-11-13 07:03:00,
2013-11-13 02:08:00,32.2,21.7,30.07,North,0,0.0,0.0,65,0.00,,,0.00,meteobridge,2013-11-13 07:08:00,
2013-11-13 02:13:00,32.2,21.7,30.08,NW,315,0.0,0.0,65,0.00,,,0.00,meteobridge,2013-11-13 07:13:00,
2013-11-13 02:18:00,32.2,21.7,30.08,North,0,0.0,0.0,65,0.00,,,0.00,meteobridge,2013-11-13 07:18:00,
2013-11-13 02:24:00,32.0,21.6,30.08,SW,225,0.0,0.0,65,0.00,,,0.00,meteobridge,2013-11-13 07:24:00,
2013-11-13 02:29:00,31.8,21.7,30.07,NNE,23,0.0,0.0,66,0.00,,,0.00,meteobridge,2013-11-13 07:29:00,
2013-11-13 02:34:00,31.6,21.6,30.07,NE,45,0.0,0.0,66,0.00,,,0.00,meteobridge,2013-11-13 07:34:00,
2013-11-13 02:39:00,31.5,21.7,30.06,NE,45,0.0,0.0,67,0.00,,,0.00,meteobridge,2013-11-13 07:39:00,
2013-11-13 02:44:00,31.3,21.6,30.07,West,270,0.0,0.0,67,0.00,,,0.00,meteobridge,2013-11-13 07:44:00,
2013-11-13 02:49:00,31.3,21.6,30.07,North,0,0.0,0.0,67,0.00,,,0.00,meteobridge,2013-11-13 07:49:00,
2013-11-13 02:55:00,31.5,21.7,30.07,NW,315,0.0,0.0,67,0.00,,,0.00,meteobridge,2013-11-13 07:55:00,
2013-11-13 03:00:00,31.6,21.9,30.06,NW,315,0.0,0.0,67,0.00,,,0.00,meteobridge,2013-11-13 08:00:00,
2013-11-13 03:05:00,31.6,21.9,30.07,NW,315,0.0,0.0,67,0.00,,,0.00,meteobridge,2013-11-13 08:05:00,
2013-11-13 03:10:00,31.6,21.6,30.07,SE,135,0.0,0.0,66,0.00,,,0.00,meteobridge,2013-11-13 08:10:00,
2013-11-13 03:15:00,31.6,21.6,30.07,NE,45,0.0,0.0,66,0.00,,,0.00,meteobridge,2013-11-13 08:15:00,
2013-11-13 03:20:00,31.6,21.6,30.07,West,270,0.0,0.0,66,0.00,,,0.00,meteobridge,2013-11-13 08:20:00,
2013-11-13 03:26:00,31.5,21.7,30.07,NE,45,0.0,0.0,67,0.00,,,0.00,meteobridge,2013-11-13 08:26:00,
2013-11-13 03:31:00,31.5,21.7,30.07,South,180,0.0,0.0,67,0.00,,,0.00,meteobridge,2013-11-13 08:31:00,
2013-11-13 03:36:00,31.5,21.7,30.07,East,90,0.0,0.0,67,0.00,,,0.00,meteobridge,2013-11-13 08:36:00,
2013-11-13 03:41:00,31.8,22.1,30.07,West,270,0.0,0.0,67,0.00,,,0.00,meteobridge,2013-11-13 08:41:00,
2013-11-13 03:46:00,31.8,21.7,30.07,NW,315,0.0,0.0,66,0.00,,,0.00,meteobridge,2013-11-13 08:46:00,
2013-11-13 03:51:00,32.0,21.6,30.07,North,0,0.0,0.0,65,0.00,,,0.00,meteobridge,2013-11-13 08:51:00,
2013-11-13 03:57:00,32.0,21.6,30.08,NW,315,0.0,0.0,65,0.00,,,0.00,meteobridge,2013-11-13 08:57:00,
2013-11-13 04:02:00,32.2,21.7,30.08,WNW,293,0.0,0.0,65,0.00,,,0.00,meteobridge,2013-11-13 09:02:00,
2013-11-13 04:07:00,32.2,21.7,30.08,WNW,293,0.0,0.0,65,0.00,,,0.00,meteobridge,2013-11-13 09:07:00,
2013-11-13 04:12:00,32.0,21.6,30.09,NW,315,0.0,0.0,65,0.00,,,0.00,meteobridge,2013-11-13 09:12:00,
2013-11-13 04:17:00,32.0,21.6,30.09,ESE,113,0.0,0.0,65,0.00,,,0.00,meteobridge,2013-11-13 09:17:00,
2013-11-13 04:22:00,32.0,21.2,30.09,NW,315,0.0,0.0,64,0.00,,,0.00,meteobridge,2013-11-13 09:22:00,
2013-11-13 04:28:00,31.8,21.4,30.09,South,180,0.0,0.0,65,0.00,,,0.00,meteobridge,2013-11-13 09:28:00,
2013-11-13 04:33:00,31.8,21.4,30.09,NNW,338,0.0,0.0,65,0.00,,,0.00,meteobridge,2013-11-13 09:33:00,
2013-11-13 04:38:00,31.6,21.2,30.09,SW,225,0.0,0.0,65,0.00,,,0.00,meteobridge,2013-11-13 09:38:00,
2013-11-13 04:43:00,31.6,21.2,30.09,NW,315,0.0,0.0,65,0.00,,,0.00,meteobridge,2013-11-13 09:43:00,
2013-11-13 04:48:00,31.3,20.8,30.09,WSW,248,0.0,0.0,65,0.00,,,0.00,meteobridge,2013-11-13 09:48:00,
2013-11-13 04:53:00,31.1,20.7,30.09,East,90,0.0,0.0,65,0.00,,,0.00,meteobridge,2013-11-13 09:53:00,
2013-11-13 04:59:00,30.9,20.5,30.09,West,270,0.0,0.0,65,0.00,,,0.00,meteobridge,2013-11-13 09:59:00,
2013-11-13 05:04:00,30.9,20.5,30.09,SE,135,0.0,0.0,65,0.00,,,0.00,meteobridge,2013-11-13 10:04:00,
2013-11-13 05:09:00,30.7,20.3,30.09,NW,315,0.0,0.0,65,0.00,,,0.00,meteobridge,2013-11-13 10:09:00,
2013-11-13 05:14:00,30.7,20.3,30.09,South,180,0.0,0.0,65,0.00,,,0.00,meteobridge,2013-11-13 10:14:00,
2013-11-13 05:19:00,30.7,20.3,30.09,North,0,0.0,0.0,65,0.00,,,0.00,meteobridge,2013-11-13 10:19:00,
2013-11-13 05:24:00,30.9,20.5,30.09,North,0,0.0,0.0,65,0.00,,,0.00,meteobridge,2013-11-13 10:24:00,
2013-11-13 05:30:00,30.9,20.5,30.10,SW,225,0.0,0.0,65,0.00,,,0.00,meteobridge,2013-11-13 10:30:00,
2013-11-13 05:35:00,30.9,20.5,30.10,East,90,0.0,0.0,65,0.00,,,0.00,meteobridge,2013-11-13 10:35:00,
2013-11-13 05:40:00,30.9,20.5,30.09,SE,135,0.0,0.0,65,0.00,,,0.00,meteobridge,2013-11-13 10:40:00,
2013-11-13 05:45:00,30.7,20.7,30.09,NW,315,0.0,0.0,66,0.00,,,0.00,meteobridge,2013-11-13 10:45:00,
2013-11-13 05:50:00,30.6,20.5,30.10,SE,135,0.0,0.0,66,0.00,,,0.00,meteobridge,2013-11-13 10:50:00,
2013-11-13 05:55:00,30.6,20.5,30.10,NW,315,0.0,0.0,66,0.00,,,0.00,meteobridge,2013-11-13 10:55:00,
2013-11-13 06:01:00,30.4,20.3,30.10,WSW,248,0.0,0.0,66,0.00,,,0.00,meteobridge,2013-11-13 11:01:00,
2013-11-13 06:06:00,30.6,20.5,30.11,NW,315,0.0,0.0,66,0.00,,,0.00,meteobridge,2013-11-13 11:06:00,
2013-11-13 06:11:00,30.6,20.8,30.11,WNW,293,0.0,0.0,67,0.00,,,0.00,meteobridge,2013-11-13 11:11:00,
2013-11-13 06:16:00,30.4,20.7,30.11,North,0,0.0,0.0,67,0.00,,,0.00,meteobridge,2013-11-13 11:16:00,
2013-11-13 06:21:00,30.4,20.7,30.11,SE,135,0.0,0.0,67,0.00,,,0.00,meteobridge,2013-11-13 11:21:00,
2013-11-13 06:26:00,30.6,20.8,30.11,North,0,0.0,0.0,67,0.00,,,0.00,meteobridge,2013-11-13 11:26:00,
2013-11-13 06:32:00,30.4,20.7,30.11,South,180,0.0,0.0,67,0.00,,,0.00,meteobridge,2013-11-13 11:32:00,
2013-11-13 06:37:00,30.6,20.8,30.11,North,0,0.0,0.0,67,0.00,,,0.00,meteobridge,2013-11-13 11:37:00,
2013-11-13 06:42:00,30.4,20.7,30.11,East,90,0.0,0.0,67,0.00,,,0.00,meteobridge,2013-11-13 11:42:00,
2013-11-13 06:47:00,30.4,20.7,30.11,SE,135,0.0,0.0,67,0.00,,,0.00,meteobridge,2013-11-13 11:47:00,
2013-11-13 06:52:00,30.6,20.8,30.12,NW,315,0.0,0.0,67,0.00,,,0.00,meteobridge,2013-11-13 11:52:00,
2013-11-13 06:57:00,30.6,20.8,30.12,NW,315,0.0,0.0,67,0.00,,,0.00,meteobridge,2013-11-13 11:57:00,
2013-11-13 07:03:00,30.6,20.8,30.12,NW,315,0.0,0.0,67,0.00,,,0.00,meteobridge,2013-11-13 12:03:00,
2013-11-13 07:08:00,30.7,21.0,30.12,East,90,0.0,0.0,67,0.00,,,0.00,meteobridge,2013-11-13 12:08:00,
2013-11-13 07:13:00,30.7,21.0,30.12,West,270,0.0,0.0,67,0.00,,,0.00,meteobridge,2013-11-13 12:13:00,
2013-11-13 07:18:00,30.7,21.0,30.13,East,90,0.0,0.0,67,0.00,,,0.00,meteobridge,2013-11-13 12:18:00,
2013-11-13 07:23:00,30.7,21.0,30.13,SE,135,0.0,0.0,67,0.00,,,0.00,meteobridge,2013-11-13 12:23:00,
2013-11-13 07:29:00,30.9,21.6,30.13,East,90,0.0,0.0,68,0.00,,,0.00,meteobridge,2013-11-13 12:29:00,
2013-11-13 07:34:00,31.1,21.7,30.13,SSE,158,0.0,0.0,68,0.00,,,0.00,meteobridge,2013-11-13 12:34:00,
2013-11-13 07:39:00,31.5,22.5,30.13,NW,315,0.0,0.0,69,0.00,,,0.00,meteobridge,2013-11-13 12:39:00,
2013-11-13 07:44:00,32.0,22.6,30.13,North,0,0.0,0.0,68,0.00,,,0.00,meteobridge,2013-11-13 12:44:00,
2013-11-13 07:49:00,32.4,23.0,30.14,East,90,0.0,0.0,68,0.00,,,0.00,meteobridge,2013-11-13 12:49:00,
2013-11-13 07:54:00,32.7,23.0,30.14,ESE,113,0.0,0.0,67,0.00,,,0.00,meteobridge,2013-11-13 12:54:00,
2013-11-13 08:00:00,32.7,23.0,30.14,SE,135,0.0,0.0,67,0.00,,,0.00,meteobridge,2013-11-13 13:00:00,
2013-11-13 08:05:00,32.9,23.2,30.14,NW,315,0.0,0.0,67,0.00,,,0.00,meteobridge,2013-11-13 13:05:00,
2013-11-13 08:10:00,32.9,22.8,30.14,NW,315,0.0,0.0,66,0.00,,,0.00,meteobridge,2013-11-13 13:10:00,
2013-11-13 08:15:00,33.3,22.8,30.15,East,90,0.0,0.0,65,0.00,,,0.00,meteobridge,2013-11-13 13:15:00,
2013-11-13 08:20:00,33.6,23.2,30.14,North,0,0.0,0.0,65,0.00,,,0.00,meteobridge,2013-11-13 13:20:00,
2013-11-13 08:25:00,33.8,23.0,30.15,SW,225,0.0,0.0,64,0.00,,,0.00,meteobridge,2013-11-13 13:25:00,
2013-11-13 08:31:00,33.6,23.2,30.15,South,180,0.0,0.0,65,0.00,,,0.00,meteobridge,2013-11-13 13:31:00,
2013-11-13 08:36:00,33.4,22.6,30.15,SE,135,0.0,0.0,64,0.00,,,0.00,meteobridge,2013-11-13 13:36:00,
2013-11-13 08:41:00,33.4,23.0,30.15,SW,225,0.7,0.7,65,0.00,,,0.00,meteobridge,2013-11-13 13:41:00,
2013-11-13 08:46:00,33.6,23.2,30.16,South,180,1.6,3.8,65,0.00,,,0.00,meteobridge,2013-11-13 13:46:00,
2013-11-13 08:51:00,33.8,23.0,30.16,NW,315,3.8,3.8,64,0.00,,,0.00,meteobridge,2013-11-13 13:51:00,
2013-11-13 08:56:00,34.0,23.0,30.16,East,90,2.2,2.2,64,0.00,,,0.00,meteobridge,2013-11-13 13:56:00,
2013-11-13 09:02:00,34.2,23.2,30.16,NE,45,1.6,1.6,64,0.00,,,0.00,meteobridge,2013-11-13 14:02:00,
2013-11-13 09:07:00,34.3,23.4,30.16,West,270,8.3,8.3,64,0.00,,,0.00,meteobridge,2013-11-13 14:07:00,
2013-11-13 09:12:00,34.5,23.5,30.16,North,0,2.2,3.1,64,0.00,,,0.00,meteobridge,2013-11-13 14:12:00,
2013-11-13 09:17:00,34.5,23.2,30.16,West,270,1.6,3.1,63,0.00,,,0.00,meteobridge,2013-11-13 14:17:00,
2013-11-13 09:22:00,34.7,23.7,30.16,WSW,248,2.2,2.2,64,0.00,,,0.00,meteobridge,2013-11-13 14:22:00,
2013-11-13 09:27:00,35.1,24.1,30.16,SE,135,1.6,5.4,64,0.00,,,0.00,meteobridge,2013-11-13 14:27:00,
2013-11-13 09:33:00,34.9,23.5,30.16,NW,315,3.8,3.8,63,0.00,,,0.00,meteobridge,2013-11-13 14:33:00,
2013-11-13 09:38:00,34.7,23.4,30.16,SSW,203,0.0,2.2,63,0.00,,,0.00,meteobridge,2013-11-13 14:38:00,
2013-11-13 09:43:00,35.2,23.9,30.16,East,90,3.1,3.1,63,0.00,,,0.00,meteobridge,2013-11-13 14:43:00,
2013-11-13 09:48:00,35.4,24.1,30.16,NW,315,3.1,3.1,63,0.00,,,0.00,meteobridge,2013-11-13 14:48:00,
2013-11-13 09:53:00,35.6,23.9,30.16,SE,135,4.5,4.5,62,0.00,,,0.00,meteobridge,2013-11-13 14:53:00,
2013-11-13 09:58:00,35.8,23.7,30.16,NE,45,1.6,2.2,61,0.00,,,0.00,meteobridge,2013-11-13 14:58:00,
2013-11-13 10:04:00,36.5,24.8,30.16,NNW,338,0.7,1.6,62,0.00,,,0.00,meteobridge,2013-11-13 15:04:00,
2013-11-13 10:09:00,37.4,26.8,30.16,NW,315,2.2,2.2,65,0.01,,,0.01,meteobridge,2013-11-13 15:09:00,
2013-11-13 10:14:00,39.0,27.9,30.16,East,90,2.2,3.1,64,0.01,,,0.01,meteobridge,2013-11-13 15:14:00,
2013-11-13 10:19:00,41.4,27.7,30.16,NW,315,3.1,3.1,58,0.01,,,0.01,meteobridge,2013-11-13 15:19:00,
2013-11-13 10:24:00,43.0,27.0,30.16,East,90,3.1,3.1,53,0.01,,,0.01,meteobridge,2013-11-13 15:24:00,
2013-11-13 10:29:00,43.9,26.4,30.15,NW,315,2.2,2.2,50,0.01,,,0.01,meteobridge,2013-11-13 15:29:00,
2013-11-13 10:35:00,43.9,25.5,30.15,NW,315,3.8,3.8,48,0.01,,,0.01,meteobridge,2013-11-13 15:35:00,
2013-11-13 10:40:00,43.5,25.2,30.15,East,90,1.6,3.8,48,0.01,,,0.01,meteobridge,2013-11-13 15:40:00,
2013-11-13 10:45:00,43.9,25.0,30.14,NW,315,0.7,3.1,47,0.01,,,0.01,meteobridge,2013-11-13 15:45:00,
2013-11-13 10:50:00,44.8,25.7,30.14,East,90,2.2,3.1,47,0.01,,,0.01,meteobridge,2013-11-13 15:50:00,
2013-11-13 10:55:00,44.8,24.8,30.14,South,180,3.8,3.8,45,0.02,,,0.02,meteobridge,2013-11-13 15:55:00,
2013-11-13 11:00:00,43.3,23.4,30.14,NE,45,2.2,2.2,45,0.02,,,0.02,meteobridge,2013-11-13 16:00:00,
2013-11-13 11:06:00,42.6,24.8,30.14,NNW,338,1.6,1.6,49,0.02,,,0.02,meteobridge,2013-11-13 16:06:00,
2013-11-13 11:11:00,42.1,24.8,30.14,NW,315,1.6,3.1,50,0.01,,,0.02,meteobridge,2013-11-13 16:11:00,
2013-11-13 11:16:00,41.5,24.8,30.14,North,0,2.2,2.2,51,0.01,,,0.02,meteobridge,2013-11-13 16:16:00,
2013-11-13 11:21:00,42.1,24.8,30.14,North,0,1.6,3.1,50,0.02,,,0.04,meteobridge,2013-11-13 16:21:00,
2013-11-13 11:26:00,43.0,24.1,30.13,WNW,293,3.8,6.0,47,0.02,,,0.04,meteobridge,2013-11-13 16:26:00,
2013-11-13 11:31:00,41.2,22.5,30.14,North,0,2.2,2.2,47,0.02,,,0.04,meteobridge,2013-11-13 16:31:00,
2013-11-13 11:37:00,40.5,23.7,30.14,NW,315,3.1,4.5,51,0.02,,,0.04,meteobridge,2013-11-13 16:37:00,
2013-11-13 11:42:00,39.9,24.3,30.13,North,0,1.6,2.2,53,0.02,,,0.04,meteobridge,2013-11-13 16:42:00,
2013-11-13 11:47:00,40.1,24.8,30.13,West,270,0.7,2.2,54,0.02,,,0.04,meteobridge,2013-11-13 16:47:00,
2013-11-13 11:52:00,39.9,24.6,30.13,NW,315,2.2,5.4,54,0.01,,,0.04,meteobridge,2013-11-13 16:52:00,
2013-11-13 11:57:00,39.9,24.6,30.13,NE,45,3.8,3.8,54,0.01,,,0.04,meteobridge,2013-11-13 16:57:00,
2013-11-13 12:02:00,41.5,25.7,30.13,North,0,2.2,3.1,53,0.01,,,0.04,meteobridge,2013-11-13 17:02:00,
2013-11-13 12:08:00,42.1,25.3,30.13,North,0,0.7,6.0,51,0.01,,,0.04,meteobridge,2013-11-13 17:08:00,
2013-11-13 12:13:00,40.3,24.1,30.13,North,0,4.5,4.5,52,0.01,,,0.04,meteobridge,2013-11-13 17:13:00,
2013-11-13 12:18:00,39.0,23.7,30.13,NW,315,4.5,4.5,54,0.01,,,0.04,meteobridge,2013-11-13 17:18:00,
2013-11-13 12:23:00,38.5,23.7,30.13,SE,135,2.2,2.2,55,0.00,,,0.04,meteobridge,2013-11-13 17:23:00,
2013-11-13 12:28:00,38.1,23.9,30.13,NW,315,1.6,3.1,56,0.00,,,0.04,meteobridge,2013-11-13 17:28:00,
2013-11-13 12:33:00,38.1,23.9,30.13,NE,45,3.8,3.8,56,0.00,,,0.04,meteobridge,2013-11-13 17:33:00,
2013-11-13 12:39:00,37.6,23.4,30.13,NW,315,1.6,2.2,56,0.00,,,0.04,meteobridge,2013-11-13 17:39:00,
2013-11-13 12:44:00,37.4,23.2,30.13,West,270,1.6,2.2,56,0.00,,,0.04,meteobridge,2013-11-13 17:44:00,
2013-11-13 12:49:00,37.4,23.2,30.13,WNW,293,2.2,2.2,56,0.00,,,0.04,meteobridge,2013-11-13 17:49:00,
2013-11-13 12:54:00,37.6,23.4,30.12,SW,225,2.2,3.1,56,0.00,,,0.04,meteobridge,2013-11-13 17:54:00,
2013-11-13 12:59:00,37.4,23.2,30.12,NW,315,1.6,1.6,56,0.00,,,0.04,meteobridge,2013-11-13 17:59:00,
2013-11-13 13:04:00,37.4,23.2,30.13,NW,315,1.6,3.1,56,0.00,,,0.04,meteobridge,2013-11-13 18:04:00,
2013-11-13 13:10:00,36.5,20.1,30.13,South,180,2.2,3.1,51,0.00,,,0.04,meteobridge,2013-11-13 18:10:00,
2013-11-13 13:15:00,36.3,20.3,30.12,NW,315,0.7,1.6,52,0.00,,,0.04,meteobridge,2013-11-13 18:15:00,
2013-11-13 13:20:00,36.3,20.8,30.13,WSW,248,1.6,3.1,53,0.00,,,0.04,meteobridge,2013-11-13 18:20:00,
2013-11-13 13:25:00,36.7,21.2,30.12,West,270,0.7,0.7,53,0.00,,,0.04,meteobridge,2013-11-13 18:25:00,
2013-11-13 13:30:00,37.0,21.0,30.12,NW,315,1.6,3.1,52,0.00,,,0.04,meteobridge,2013-11-13 18:30:00,
2013-11-13 13:36:00,37.0,21.6,30.12,West,270,3.1,3.1,53,0.00,,,0.04,meteobridge,2013-11-13 18:36:00,
2013-11-13 13:41:00,36.9,20.8,30.12,SE,135,2.2,4.5,52,0.00,,,0.04,meteobridge,2013-11-13 18:41:00,
2013-11-13 13:46:00,36.9,20.8,30.11,West,270,1.6,1.6,52,0.00,,,0.04,meteobridge,2013-11-13 18:46:00,
2013-11-13 13:51:00,36.9,20.8,30.12,North,0,0.7,3.8,52,0.00,,,0.04,meteobridge,2013-11-13 18:51:00,
2013-11-13 13:56:00,36.9,20.8,30.12,West,270,2.2,2.2,52,0.00,,,0.04,meteobridge,2013-11-13 18:56:00,
2013-11-13 14:01:00,36.7,20.7,30.11,NW,315,0.7,2.2,52,0.00,,,0.04,meteobridge,2013-11-13 19:01:00,
2013-11-13 14:07:00,36.7,20.7,30.11,NW,315,1.6,2.2,52,0.00,,,0.04,meteobridge,2013-11-13 19:07:00,
2013-11-13 14:12:00,36.7,20.7,30.11,West,270,2.2,2.2,52,0.00,,,0.04,meteobridge,2013-11-13 19:12:00,
2013-11-13 14:17:00,36.5,20.5,30.12,West,270,1.6,2.2,52,0.00,,,0.04,meteobridge,2013-11-13 19:17:00,
2013-11-13 14:22:00,36.5,21.0,30.12,West,270,1.6,2.2,53,0.00,,,0.04,meteobridge,2013-11-13 19:22:00,
2013-11-13 14:27:00,36.5,21.0,30.12,SE,135,0.7,3.1,53,0.00,,,0.04,meteobridge,2013-11-13 19:27:00,
2013-11-13 14:32:00,36.3,20.3,30.11,North,0,2.2,2.2,52,0.00,,,0.04,meteobridge,2013-11-13 19:32:00,
2013-11-13 14:38:00,36.3,20.8,30.12,North,0,1.6,1.6,53,0.00,,,0.04,meteobridge,2013-11-13 19:38:00,
2013-11-13 14:43:00,36.3,20.8,30.12,NE,45,1.6,1.6,53,0.00,,,0.04,meteobridge,2013-11-13 19:43:00,
2013-11-13 14:48:00,36.1,20.3,30.11,NW,315,0.7,1.6,52,0.00,,,0.04,meteobridge,2013-11-13 19:48:00,
2013-11-13 14:53:00,36.1,20.7,30.12,NW,315,1.6,3.8,53,0.00,,,0.04,meteobridge,2013-11-13 19:53:00,
2013-11-13 14:58:00,36.0,21.0,30.12,NW,315,0.7,2.2,54,0.00,,,0.04,meteobridge,2013-11-13 19:58:00,
2013-11-13 15:03:00,36.0,20.5,30.12,North,0,1.6,3.8,53,0.00,,,0.04,meteobridge,2013-11-13 20:03:00,
2013-11-13 15:09:00,36.0,20.1,30.12,NW,315,1.6,1.6,52,0.00,,,0.04,meteobridge,2013-11-13 20:09:00,
2013-11-13 15:14:00,35.8,20.3,30.12,North,0,2.2,2.2,53,0.00,,,0.04,meteobridge,2013-11-13 20:14:00,
2013-11-13 15:19:00,35.8,19.9,30.12,East,90,1.6,1.6,52,0.00,,,0.04,meteobridge,2013-11-13 20:19:00,
2013-11-13 15:24:00,35.6,20.1,30.12,West,270,2.2,3.1,53,0.00,,,0.04,meteobridge,2013-11-13 20:24:00,
2013-11-13 15:29:00,35.6,20.1,30.13,North,0,1.6,1.6,53,0.00,,,0.04,meteobridge,2013-11-13 20:29:00,
2013-11-13 15:34:00,35.4,19.9,30.13,NW,315,1.6,4.5,53,0.00,,,0.04,meteobridge,2013-11-13 20:34:00,
2013-11-13 15:40:00,35.4,19.6,30.12,NNE,23,1.6,1.6,52,0.00,,,0.04,meteobridge,2013-11-13 20:40:00,
2013-11-13 15:45:00,35.1,18.7,30.13,SW,225,1.6,1.6,51,0.00,,,0.04,meteobridge,2013-11-13 20:45:00,
2013-11-13 15:50:00,34.9,18.1,30.12,South,180,1.6,1.6,50,0.00,,,0.04,meteobridge,2013-11-13 20:50:00,
2013-11-13 15:55:00,34.9,19.0,30.12,West,270,0.7,1.6,52,0.00,,,0.04,meteobridge,2013-11-13 20:55:00,
2013-11-13 16:00:00,34.7,19.4,30.12,NW,315,0.7,0.7,53,0.00,,,0.04,meteobridge,2013-11-13 21:00:00,
2013-11-13 16:06:00,34.5,18.7,30.12,SE,135,1.6,2.2,52,0.00,,,0.04,meteobridge,2013-11-13 21:06:00,
2013-11-13 16:11:00,34.5,18.7,30.12,NW,315,1.6,1.6,52,0.00,,,0.04,meteobridge,2013-11-13 21:11:00,
2013-11-13 16:16:00,34.3,18.5,30.12,SE,135,1.6,2.2,52,0.00,,,0.04,meteobridge,2013-11-13 21:16:00,
2013-11-13 16:21:00,34.3,18.5,30.12,South,180,1.6,1.6,52,0.00,,,0.04,meteobridge,2013-11-13 21:21:00,
2013-11-13 16:26:00,34.3,17.6,30.13,SE,135,1.6,1.6,50,0.00,,,0.04,meteobridge,2013-11-13 21:26:00,
2013-11-13 16:31:00,34.3,17.6,30.13,North,0,0.7,0.7,50,0.00,,,0.04,meteobridge,2013-11-13 21:31:00,
2013-11-13 16:37:00,34.2,18.3,30.13,West,270,0.7,1.6,52,0.00,,,0.04,meteobridge,2013-11-13 21:37:00,
2013-11-13 16:42:00,34.2,18.0,30.13,NW,315,1.6,2.2,51,0.00,,,0.04,meteobridge,2013-11-13 21:42:00,
2013-11-13 16:47:00,34.3,18.1,30.13,West,270,2.2,2.2,51,0.00,,,0.04,meteobridge,2013-11-13 21:47:00,
2013-11-13 16:52:00,34.3,17.6,30.14,NW,315,2.2,2.2,50,0.00,,,0.04,meteobridge,2013-11-13 21:52:00,
2013-11-13 16:57:00,34.3,17.6,30.14,NE,45,0.7,0.7,50,0.00,,,0.04,meteobridge,2013-11-13 21:57:00,
2013-11-13 17:03:00,34.3,17.2,30.14,North,0,0.0,1.6,49,0.00,,,0.04,meteobridge,2013-11-13 22:03:00,
2013-11-13 17:08:00,34.3,17.2,30.14,North,0,0.7,1.6,49,0.00,,,0.04,meteobridge,2013-11-13 22:08:00,
2013-11-13 17:13:00,34.3,17.2,30.14,NW,315,0.7,0.7,49,0.00,,,0.04,meteobridge,2013-11-13 22:13:00,
2013-11-13 17:18:00,34.3,17.6,30.14,SE,135,1.6,1.6,50,0.00,,,0.04,meteobridge,2013-11-13 22:18:00,
2013-11-13 17:23:00,34.3,17.6,30.14,East,90,1.6,1.6,50,0.00,,,0.04,meteobridge,2013-11-13 22:23:00,
2013-11-13 17:28:00,34.5,17.8,30.14,SE,135,1.6,1.6,50,0.00,,,0.04,meteobridge,2013-11-13 22:28:00,
2013-11-13 17:34:00,34.5,17.8,30.14,North,0,0.7,1.6,50,0.00,,,0.04,meteobridge,2013-11-13 22:34:00,
2013-11-13 17:39:00,34.5,17.8,30.14,NW,315,1.6,1.6,50,0.00,,,0.04,meteobridge,2013-11-13 22:39:00,
2013-11-13 17:44:00,34.7,17.4,30.14,NW,315,0.7,1.6,49,0.00,,,0.04,meteobridge,2013-11-13 22:44:00,
2013-11-13 17:49:00,34.7,17.4,30.14,NW,315,1.6,1.6,49,0.00,,,0.04,meteobridge,2013-11-13 22:49:00,
2013-11-13 17:54:00,34.7,17.1,30.15,South,180,3.8,3.8,48,0.00,,,0.04,meteobridge,2013-11-13 22:54:00,
2013-11-13 17:59:00,34.9,16.7,30.15,North,0,3.1,3.1,47,0.00,,,0.04,meteobridge,2013-11-13 22:59:00,
2013-11-13 18:05:00,34.9,16.7,30.15,North,0,3.1,3.1,47,0.00,,,0.04,meteobridge,2013-11-13 23:05:00,
2013-11-13 18:10:00,34.9,16.2,30.15,NW,315,1.6,1.6,46,0.00,,,0.04,meteobridge,2013-11-13 23:10:00,
2013-11-13 18:15:00,34.9,16.7,30.15,NNE,23,2.2,2.2,47,0.00,,,0.04,meteobridge,2013-11-13 23:15:00,
2013-11-13 18:20:00,34.9,17.2,30.15,WNW,293,2.2,2.2,48,0.00,,,0.04,meteobridge,2013-11-13 23:20:00,
2013-11-13 18:25:00,34.9,17.2,30.15,NW,315,0.7,1.6,48,0.00,,,0.04,meteobridge,2013-11-13 23:25:00,
2013-11-13 18:30:00,34.7,17.1,30.15,SE,135,1.6,1.6,48,0.00,,,0.04,meteobridge,2013-11-13 23:30:00,
2013-11-13 18:36:00,34.7,17.1,30.15,SE,135,2.2,2.2,48,0.00,,,0.04,meteobridge,2013-11-13 23:36:00,
2013-11-13 18:41:00,34.7,17.1,30.15,NW,315,0.7,2.2,48,0.00,,,0.04,meteobridge,2013-11-13 23:41:00,
2013-11-13 18:46:00,34.7,17.4,30.15,NE,45,1.6,2.2,49,0.00,,,0.04,meteobridge,2013-11-13 23:46:00,
2013-11-13 18:51:00,34.7,17.4,30.15,NW,315,1.6,1.6,49,0.00,,,0.04,meteobridge,2013-11-13 23:51:00,
2013-11-13 18:56:00,34.7,17.4,30.15,North,0,1.6,2.2,49,0.00,,,0.04,meteobridge,2013-11-13 23:56:00,
2013-11-13 19:01:00,34.7,17.4,30.15,NW,315,0.7,3.1,49,0.00,,,0.04,meteobridge,2013-11-14 00:01:00,
2013-11-13 19:07:00,34.5,17.2,30.15,North,0,1.6,5.4,49,0.00,,,0.04,meteobridge,2013-11-14 00:07:00,
2013-11-13 19:12:00,34.7,18.0,30.15,East,90,1.6,1.6,50,0.00,,,0.04,meteobridge,2013-11-14 00:12:00,
2013-11-13 19:17:00,34.7,17.4,30.15,NW,315,2.2,2.2,49,0.00,,,0.04,meteobridge,2013-11-14 00:17:00,
2013-11-13 19:22:00,34.7,18.0,30.15,NW,315,1.6,2.2,50,0.00,,,0.04,meteobridge,2013-11-14 00:22:00,
2013-11-13 19:27:00,34.9,18.1,30.15,North,0,1.6,2.2,50,0.00,,,0.04,meteobridge,2013-11-14 00:27:00,
2013-11-13 19:32:00,34.9,18.1,30.15,WNW,293,1.6,3.1,50,0.00,,,0.04,meteobridge,2013-11-14 00:32:00,
2013-11-13 19:38:00,34.9,18.5,30.15,West,270,2.2,2.2,51,0.00,,,0.04,meteobridge,2013-11-14 00:38:00,
2013-11-13 19:43:00,34.9,18.1,30.15,North,0,1.6,1.6,50,0.00,,,0.04,meteobridge,2013-11-14 00:43:00,
2013-11-13 19:48:00,34.7,18.0,30.16,NW,315,2.2,2.2,50,0.00,,,0.04,meteobridge,2013-11-14 00:48:00,
2013-11-13 19:53:00,34.7,18.0,30.16,NE,45,1.6,1.6,50,0.00,,,0.04,meteobridge,2013-11-14 00:53:00,
2013-11-13 19:58:00,34.7,17.4,30.16,NE,45,2.2,2.2,49,0.00,,,0.04,meteobridge,2013-11-14 00:58:00,
2013-11-13 20:03:00,34.7,17.4,30.16,NW,315,1.6,1.6,49,0.00,,,0.04,meteobridge,2013-11-14 01:03:00,
2013-11-13 20:09:00,34.7,17.4,30.16,East,90,0.7,1.6,49,0.00,,,0.04,meteobridge,2013-11-14 01:09:00,
2013-11-13 20:14:00,34.7,17.4,30.16,NE,45,0.7,1.6,49,0.00,,,0.04,meteobridge,2013-11-14 01:14:00,
2013-11-13 20:19:00,34.7,18.0,30.16,North,0,0.7,3.1,50,0.00,,,0.04,meteobridge,2013-11-14 01:19:00,
2013-11-13 20:24:00,34.5,17.2,30.16,WNW,293,1.6,1.6,49,0.00,,,0.04,meteobridge,2013-11-14 01:24:00,
2013-11-13 20:29:00,34.5,17.2,30.16,NW,315,1.6,1.6,49,0.00,,,0.04,meteobridge,2013-11-14 01:29:00,
2013-11-13 20:34:00,34.5,17.8,30.16,North,0,1.6,1.6,50,0.00,,,0.04,meteobridge,2013-11-14 01:34:00,
2013-11-13 20:40:00,34.5,17.2,30.16,South,180,2.2,2.2,49,0.00,,,0.04,meteobridge,2013-11-14 01:40:00,
2013-11-13 20:45:00,34.5,16.3,30.16,West,270,1.6,5.4,47,0.00,,,0.04,meteobridge,2013-11-14 01:45:00,
2013-11-13 20:50:00,34.3,16.2,30.16,SE,135,1.6,1.6,47,0.00,,,0.04,meteobridge,2013-11-14 01:50:00,
2013-11-13 20:55:00,34.3,16.2,30.16,NW,315,2.2,3.1,47,0.00,,,0.04,meteobridge,2013-11-14 01:55:00,
2013-11-13 21:00:00,34.3,16.7,30.16,West,270,2.2,2.2,48,0.00,,,0.04,meteobridge,2013-11-14 02:00:00,
2013-11-13 21:05:00,34.3,16.7,30.16,West,270,2.2,2.2,48,0.00,,,0.04,meteobridge,2013-11-14 02:05:00,
2013-11-13 21:11:00,34.2,16.0,30.16,NW,315,2.2,2.2,47,0.00,,,0.04,meteobridge,2013-11-14 02:11:00,
2013-11-13 21:16:00,34.2,16.0,30.16,West,270,2.2,3.1,47,0.00,,,0.04,meteobridge,2013-11-14 02:16:00,
2013-11-13 21:21:00,34.2,16.0,30.15,NW,315,0.7,2.2,47,0.00,,,0.04,meteobridge,2013-11-14 02:21:00,
2013-11-13 21:26:00,34.0,16.3,30.15,South,180,2.2,3.1,48,0.00,,,0.04,meteobridge,2013-11-14 02:26:00,
2013-11-13 21:31:00,34.0,15.8,30.15,NW,315,1.6,1.6,47,0.00,,,0.04,meteobridge,2013-11-14 02:31:00,
2013-11-13 21:36:00,34.0,15.4,30.15,North,0,1.6,1.6,46,0.00,,,0.04,meteobridge,2013-11-14 02:36:00,
2013-11-13 21:42:00,34.0,15.4,30.15,West,270,1.6,2.2,46,0.00,,,0.04,meteobridge,2013-11-14 02:42:00,
2013-11-13 21:47:00,34.0,15.8,30.15,NW,315,1.6,1.6,47,0.00,,,0.04,meteobridge,2013-11-14 02:47:00,
2013-11-13 21:52:00,34.2,16.0,30.14,NW,315,2.2,2.2,47,0.00,,,0.04,meteobridge,2013-11-14 02:52:00,
2013-11-13 21:57:00,34.2,16.5,30.14,North,0,1.6,1.6,48,0.00,,,0.04,meteobridge,2013-11-14 02:57:00,
2013-11-13 22:02:00,34.2,17.4,30.14,NE,45,1.6,3.8,50,0.00,,,0.04,meteobridge,2013-11-14 03:02:00,
2013-11-13 22:07:00,34.2,17.1,30.14,North,0,0.7,1.6,49,0.00,,,0.04,meteobridge,2013-11-14 03:07:00,
2013-11-13 22:13:00,34.0,16.3,30.14,West,270,0.7,3.8,48,0.00,,,0.04,meteobridge,2013-11-14 03:13:00,
2013-11-13 22:18:00,34.0,15.8,30.14,NW,315,0.7,1.6,47,0.00,,,0.04,meteobridge,2013-11-14 03:18:00,
2013-11-13 22:23:00,34.0,16.3,30.14,North,0,2.2,2.2,48,0.00,,,0.04,meteobridge,2013-11-14 03:23:00,
2013-11-13 22:28:00,34.0,16.3,30.14,SE,135,2.2,2.2,48,0.00,,,0.04,meteobridge,2013-11-14 03:28:00,
2013-11-13 22:33:00,34.0,16.9,30.13,SW,225,1.6,3.1,49,0.00,,,0.04,meteobridge,2013-11-14 03:33:00,
2013-11-13 22:39:00,33.8,17.1,30.13,North,0,2.2,2.2,50,0.00,,,0.04,meteobridge,2013-11-14 03:39:00,
2013-11-13 22:44:00,34.0,16.9,30.13,North,0,1.6,2.2,49,0.00,,,0.04,meteobridge,2013-11-14 03:44:00,
2013-11-13 22:49:00,34.0,16.3,30.14,West,270,2.2,2.2,48,0.00,,,0.04,meteobridge,2013-11-14 03:49:00,
2013-11-13 22:54:00,33.8,15.6,30.13,West,270,1.6,1.6,47,0.00,,,0.04,meteobridge,2013-11-14 03:54:00,
2013-11-13 22:59:00,33.8,16.2,30.13,NNW,338,3.1,4.5,48,0.00,,,0.04,meteobridge,2013-11-14 03:59:00,
2013-11-13 23:04:00,33.8,16.2,30.13,NNW,338,2.2,2.2,48,0.00,,,0.04,meteobridge,2013-11-14 04:04:00,
2013-11-13 23:10:00,33.8,16.2,30.13,NW,315,0.7,2.2,48,0.00,,,0.04,meteobridge,2013-11-14 04:10:00,
2013-11-13 23:15:00,34.0,16.9,30.13,North,0,0.7,1.6,49,0.00,,,0.04,meteobridge,2013-11-14 04:15:00,
2013-11-13 23:20:00,33.8,16.7,30.12,West,270,0.7,1.6,49,0.00,,,0.04,meteobridge,2013-11-14 04:20:00,
2013-11-13 23:25:00,33.8,17.6,30.12,West,270,1.6,1.6,51,0.00,,,0.04,meteobridge,2013-11-14 04:25:00,
2013-11-13 23:30:00,34.0,17.8,30.12,North,0,1.6,3.1,51,0.00,,,0.04,meteobridge,2013-11-14 04:30:00,
2013-11-13 23:35:00,33.8,17.1,30.12,North,0,3.1,3.1,50,0.00,,,0.04,meteobridge,2013-11-14 04:35:00,
2013-11-13 23:41:00,34.0,17.8,30.12,NW,315,0.7,1.6,51,0.00,,,0.04,meteobridge,2013-11-14 04:41:00,
2013-11-13 23:46:00,34.2,18.0,30.12,West,270,1.6,2.2,51,0.00,,,0.04,meteobridge,2013-11-14 04:46:00,
2013-11-13 23:51:00,34.3,18.5,30.12,West,270,0.7,1.6,52,0.00,,,0.04,meteobridge,2013-11-14 04:51:00,
2013-11-13 23:56:00,34.3,19.0,30.12,West,270,2.2,2.2,53,0.00,,,0.04,meteobridge,2013-11-14 04:56:00,